Wind_Speed
15 15 16 19 20 20 18 18 18 18 18 18 17 18 17 17 17 17 16 16 16 16 15 14 14 14 14 14 14 14 13 13 13 11 12 14 14 14 13 13 12 12 12 12 12 12 12 12 12 13 13 12 10 10 9 11 14 14 15 15 16 15 15 16 17 17 17 17 17 16 16 14 13 13 13 15 17 17 15 16 13 11 13 14 14
18 17 18 20 20 20 19 18 18 18 18 18 18 18 18 17 17 17 17 17 17 16 16 15 14 15 13 13 13 14 14 13 13 12 11 12 13 13 13 13 13 12 11 11 11 11 12 11 12 13 12 11 10 10 10 12 13 14 14 14 15 14 14 15 16 16 17 17 17 16 16 15 14 14 13 15 17 17 15 16 14 14 16 17 17
18 17 21 21 21 20 18 18 18 19 19 19 19 19 18 17 17 17 17 18 18 17 16 15 15 15 13 12 13 13 13 13 12 12 11 11 12 12 12 12 12 12 11 10 9 9 10 11 11 13 12 11 10 11 11 11 12 13 13 14 14 14 14 14 15 16 18 19 18 17 17 17 16 14 14 15 16 17 17 18 18 19 20 20 18
18 19 23 22 21 20 19 19 19 20 20 20 19 19 18 18 18 18 18 19 18 17 16 15 16 15 12 11 12 12 12 12 12 12 11 10 11 11 11 11 11 11 11 10 9 8 10 11 10 12 12 10 10 10 10 11 12 12 12 12 14 14 14 14 15 17 21 21 20 18 16 16 15 15 15 14 16 17 19 20 20 21 22 23 22
19 20 23 23 21 20 20 20 20 20 20 19 19 19 19 18 19 19 19 19 18 17 16 15 15 12 10 10 10 11 11 11 11 11 10 9 11 11 11 11 9 9 11 11 10 9 10 11 11 12 12 11 10 10 10 10 11 11 11 12 13 13 14 15 17 21 23 21 19 15 11 14 14 14 15 15 16 17 19 20 21 22 22 22 22
19 20 23 23 22 21 20 20 20 20 19 19 19 19 18 19 19 19 19 18 18 17 16 15 13 9 9 10 10 10 10 10 10 10 10 9 11 13 12 11 10 8 10 11 10 10 10 10 11 12 12 11 10 10 9 9 10 10 10 11 12 12 13 14 18 22 22 20 18 13 6 10 12 13 14 15 15 16 18 20 20 21 21 21 20
19 20 24 23 22 22 20 21 20 20 19 19 19 18 18 18 18 18 18 18 18 16 15 13 10 8 9 10 10 10 10 10 10 10 11 10 11 12 11 11 10 8 8 10 10 10 11 10 10 12 12 12 11 10 9 9 9 9 8 10 10 11 12 13 18 20 20 19 12 8 6 6 11 13 13 14 15 16 17 19 19 20 20 19 18
18 21 23 22 23 22 21 21 20 20 19 19 19 18 17 17 17 17 18 17 17 15 13 11 10 10 10 11 11 12 12 11 12 11 11 11 11 12 12 11 9 8 7 8 8 9 10 10 10 11 13 12 12 11 10 9 8 8 8 9 9 10 12 14 18 19 19 16 8 6 7 5 9 11 12 14 14 15 17 17 19 19 19 17 16
18 20 21 21 23 22 21 21 20 20 20 20 19 18 17 17 17 17 17 17 16 14 13 12 12 12 12 12 13 14 14 14 14 13 12 12 11 12 12 10 9 7 7 6 6 6 8 10 10 11 12 13 13 12 11 10 8 7 8 8 9 9 11 15 18 20 17 11 6 5 7 3 7 9 11 13 14 15 17 17 18 18 18 17 16
19 20 20 21 22 21 21 21 20 20 20 20 18 18 17 18 18 18 18 17 16 15 14 13 13 13 13 14 14 14 15 15 14 13 11 12 12 12 11 10 8 7 6 5 4 3 6 9 10 11 12 14 14 13 12 10 9 7 7 8 8 9 10 14 18 19 12 5 5 6 9 5 4 7 10 12 14 16 16 15 15 17 18 17 17
18 19 18 19 21 21 21 20 20 20 19 19 18 18 18 19 19 19 19 18 17 16 15 14 14 14 14 15 15 15 15 14 13 12 11 12 13 12 11 10 9 8 6 5 4 3 4 8 10 11 12 14 15 13 12 11 10 8 7 7 7 7 8 10 15 16 7 4 7 7 6 2 3 7 10 12 14 14 13 13 14 16 17 17 17
17 18 17 17 20 21 20 20 19 19 19 18 19 19 19 20 20 20 19 19 18 16 15 14 14 14 14 14 15 15 14 14 13 12 11 11 12 12 12 11 10 8 6 5 4 3 3 7 9 11 12 13 14 14 13 12 10 9 7 6 6 6 6 7 14 13 4 5 8 8 5 1 4 7 9 12 12 12 12 13 14 14 15 16 16
16 16 16 16 19 21 20 19 19 19 19 19 20 20 21 21 21 21 21 20 18 17 16 15 14 14 15 15 15 15 14 13 13 12 11 11 12 13 13 11 9 8 6 5 5 3 4 7 9 10 11 12 14 14 14 13 11 9 8 6 5 5 6 8 14 10 2 4 7 6 2 1 4 7 9 11 11 11 12 13 13 14 14 15 16
14 14 14 15 20 21 20 20 19 19 19 20 21 22 23 23 23 23 22 20 19 17 16 15 16 16 16 15 15 15 13 13 13 12 11 11 12 14 13 11 10 9 8 7 7 6 6 8 9 10 10 12 14 15 14 13 11 9 9 8 6 6 7 10 12 6 4 5 6 5 0 1 4 6 9 10 10 11 11 12 12 13 13 13 14
14 14 13 15 20 21 20 19 19 20 20 21 22 23 23 24 23 22 22 21 20 19 17 16 17 17 16 15 15 14 13 12 13 13 12 11 11 12 12 11 10 9 8 7 8 8 8 9 9 8 9 10 13 15 15 13 11 10 9 9 7 6 7 12 10 3 4 4 6 3 3 2 3 4 8 9 9 10 10 10 11 12 12 13 13
14 14 12 15 19 20 19 18 19 19 19 20 20 22 22 22 22 23 23 21 20 20 18 17 17 17 16 15 14 15 14 13 13 13 12 11 10 9 10 10 8 7 6 6 6 7 7 7 7 7 8 9 11 14 14 13 12 10 9 9 8 7 7 13 11 3 4 4 5 1 6 1 1 3 6 8 8 8 9 9 10 11 11 11 12
15 13 12 14 17 18 18 18 18 18 18 18 19 20 21 21 22 24 23 19 18 18 18 17 18 17 16 15 15 15 15 14 13 13 12 11 9 8 7 7 6 6 5 4 4 4 5 6 6 6 7 7 9 13 13 13 12 10 9 8 8 7 8 12 11 3 4 5 5 1 4 1 1 2 4 6 8 8 8 9 9 10 10 10 10
14 13 13 14 15 16 18 19 19 19 19 19 21 21 23 24 24 23 19 15 16 16 16 17 17 16 15 15 16 16 15 15 13 12 11 11 9 7 7 6 6 5 5 5 4 4 4 5 5 5 5 5 9 12 12 11 10 9 9 9 8 7 8 9 9 4 4 5 5 4 4 3 2 1 2 4 5 7 7 7 9 9 9 9 9
13 14 15 15 14 15 17 19 20 21 20 20 22 23 24 24 23 21 15 14 16 16 16 17 17 16 15 16 17 16 15 14 12 12 10 9 8 7 7 6 5 5 4 4 4 3 3 3 3 3 4 4 8 11 11 9 9 9 8 9 8 8 8 9 8 3 4 6 3 7 6 5 2 0 1 2 3 6 7 7 7 8 8 8 8
13 14 15 15 15 15 16 18 21 22 21 22 22 24 23 19 19 18 14 16 16 15 15 16 17 16 16 17 17 15 14 14 12 11 9 8 7 6 6 5 4 4 3 3 3 4 3 3 3 3 3 3 5 8 9 9 8 8 9 9 8 8 8 7 6 4 4 5 6 8 7 6 3 1 1 1 2 4 5 6 6 7 7 7 7
15 14 13 14 15 14 16 18 20 21 21 21 20 23 20 16 19 18 15 16 15 14 15 16 18 17 17 17 17 16 14 14 13 11 9 8 7 7 7 6 4 3 2 2 2 3 4 4 4 3 3 3 3 4 6 7 8 8 8 9 8 8 6 5 5 4 4 5 8 8 7 6 4 2 0 1 1 2 3 4 6 6 6 6 6
14 13 12 12 12 13 15 17 18 20 23 21 18 19 17 15 17 17 16 16 15 15 16 18 18 18 18 17 16 16 13 13 12 11 9 9 8 8 8 6 4 3 2 2 1 2 3 4 4 5 5 4 4 3 2 3 6 8 9 8 8 6 5 6 7 4 4 6 9 6 7 8 5 3 1 1 1 0 0 2 4 6 5 6 6
12 13 13 12 11 12 13 14 16 18 21 21 17 16 15 15 17 18 17 16 16 17 18 19 18 18 19 18 16 15 13 12 12 10 10 10 9 8 7 6 5 4 2 2 2 2 2 3 4 5 5 5 5 4 2 3 3 5 9 10 7 6 8 8 8 5 5 9 12 6 6 8 6 4 1 1 1 0 1 1 2 5 5 5 5
14 13 12 13 13 13 13 14 15 15 17 18 16 17 17 17 18 18 16 16 17 18 18 19 19 18 17 17 15 13 13 12 12 11 10 9 8 7 6 6 5 5 4 3 2 1 1 2 3 3 5 5 4 3 5 6 5 3 7 9 7 8 8 8 7 6 6 9 13 7 6 7 6 6 2 1 1 0 2 1 1 3 5 5 6
15 13 13 15 15 15 15 15 16 16 17 18 17 19 19 19 18 17 16 17 17 17 17 18 18 16 15 15 12 12 12 11 10 10 10 9 8 8 7 6 6 6 6 5 4 3 2 2 3 3 3 4 4 6 7 7 7 5 7 8 8 9 8 8 8 7 8 10 11 8 6 6 6 6 4 3 2 2 2 2 2 2 3 5 6
14 13 15 17 15 16 16 16 18 19 18 18 18 19 19 19 19 18 18 17 17 17 17 16 14 13 15 18 13 12 12 11 10 9 10 9 9 9 8 8 8 8 7 6 6 6 4 5 5 3 4 5 7 8 8 8 8 7 8 9 9 9 8 8 8 8 10 11 10 7 6 6 6 6 6 4 3 3 3 3 4 4 3 5 7
14 13 15 16 16 18 18 16 18 18 18 19 19 19 19 19 18 19 19 18 17 16 16 15 14 13 14 17 14 12 11 10 9 8 8 8 9 8 8 8 9 10 9 8 9 8 6 6 6 6 6 7 8 7 7 8 8 8 8 8 8 8 8 8 8 8 9 10 10 8 6 6 5 6 7 5 4 4 4 4 4 5 5 5 6
14 14 14 17 18 19 19 17 16 17 18 18 18 18 19 19 19 19 18 17 17 14 13 14 15 13 11 14 14 13 11 9 8 9 9 9 9 9 9 10 11 11 10 11 11 10 8 7 8 9 8 7 7 7 6 6 7 8 7 8 8 9 9 8 8 8 8 9 9 8 6 6 4 5 7 6 5 4 4 4 3 4 5 5 5
15 15 15 18 19 17 18 17 17 17 17 18 18 17 17 20 21 19 18 17 15 13 11 11 13 11 9 11 12 11 10 9 9 10 9 9 10 11 12 12 13 12 11 13 12 11 10 9 9 9 8 8 7 7 7 6 7 7 7 8 8 9 9 9 8 8 9 8 9 8 6 5 4 4 6 6 5 4 4 4 4 3 3 5 5
15 15 15 16 18 18 17 17 18 18 18 18 17 16 17 18 19 17 17 15 12 11 8 7 10 10 7 7 9 8 8 8 9 10 9 8 10 12 12 12 13 13 13 13 12 12 12 10 10 10 9 9 9 8 8 8 7 6 6 7 8 8 9 9 8 8 9 10 9 8 6 6 5 4 5 5 5 4 4 3 3 2 1 3 5
14 16 16 15 18 20 18 18 20 19 17 16 15 16 15 14 13 12 12 11 10 9 6 4 5 8 7 5 7 9 9 9 9 9 10 10 10 9 9 10 11 11 12 13 13 12 11 10 8 9 9 8 9 9 8 8 8 6 6 7 7 8 8 8 8 8 9 10 9 8 8 8 6 5 3 3 4 4 3 1 2 1 1 1 3
15 16 16 15 18 19 18 19 21 20 19 18 15 12 12 11 11 10 8 9 8 6 4 3 1 5 7 6 8 11 11 10 9 10 11 10 8 7 8 9 8 8 10 11 11 10 9 8 4 4 7 7 9 9 7 9 7 6 6 6 6 7 7 7 8 8 8 9 9 9 9 10 8 6 4 2 1 1 1 2 3 2 2 2 2
16 17 16 17 19 19 19 20 22 22 20 19 16 12 12 12 11 9 6 7 7 5 4 4 3 2 4 5 7 10 10 10 9 10 11 8 7 8 8 8 6 6 8 8 8 8 9 7 2 3 6 6 8 8 8 10 7 4 5 5 5 8 8 8 8 7 7 7 8 9 9 9 9 7 5 4 2 3 4 4 5 4 3 2 2
15 16 17 18 19 19 21 21 22 23 20 17 16 13 12 11 10 8 6 6 6 6 5 4 4 3 2 3 5 6 7 10 11 10 10 8 8 10 8 8 5 5 8 7 5 5 7 6 3 4 6 6 7 8 9 11 8 5 5 3 5 10 11 10 9 6 6 7 6 7 9 8 8 8 7 5 4 5 5 5 5 6 4 3 2
16 17 18 18 18 19 20 20 20 21 19 16 14 14 12 11 11 8 5 5 4 4 4 4 3 2 1 2 3 4 4 6 8 10 11 9 9 9 8 8 6 5 7 6 4 5 5 4 4 6 6 5 7 8 10 12 10 8 7 3 4 8 8 7 8 5 5 7 6 6 8 8 8 9 7 5 5 6 6 6 5 5 5 4 3
19 19 19 17 17 19 18 18 20 19 18 17 14 14 14 12 10 6 4 4 3 2 3 2 2 2 1 1 1 2 3 4 4 7 9 8 7 7 7 8 6 6 6 5 4 4 4 4 5 6 5 5 6 7 9 12 11 9 8 5 4 6 5 5 6 5 4 5 7 8 9 9 9 8 9 8 6 5 5 5 5 5 5 5 4
18 19 19 17 16 18 16 17 20 18 18 18 14 13 13 9 7 5 4 4 3 2 1 0 1 2 1 1 2 2 2 3 4 5 6 7 6 5 5 6 6 5 5 4 4 4 4 4 5 6 5 6 6 5 8 10 9 7 7 6 6 5 4 4 5 6 5 5 6 7 8 10 10 9 9 9 7 4 4 4 5 5 5 5 4
18 19 19 16 14 17 18 19 19 17 18 17 14 13 11 9 8 7 7 5 4 3 2 1 1 1 1 1 2 2 1 2 3 3 4 5 4 3 3 4 5 4 3 3 4 4 4 4 5 5 5 6 5 4 5 6 6 5 6 6 7 6 5 6 6 7 6 5 6 6 6 7 8 9 10 8 6 6 7 6 4 4 5 5 4
19 18 16 14 13 15 18 18 17 17 16 15 14 13 11 10 10 9 8 7 6 4 2 2 2 2 2 2 3 3 2 0 1 1 1 2 1 2 2 2 3 3 3 3 3 4 4 4 5 5 5 5 5 4 3 4 4 4 5 5 5 5 7 7 7 7 6 6 8 8 8 7 4 5 8 7 6 7 8 8 6 5 4 3 1
17 15 13 13 13 12 15 17 17 16 14 14 13 11 10 9 9 9 8 7 5 4 4 4 3 3 4 3 3 3 3 2 1 2 2 1 0 0 1 1 0 1 2 2 3 3 3 3 5 5 5 4 4 5 5 5 4 4 5 6 4 5 6 6 7 8 7 8 9 9 9 11 9 5 6 6 7 9 8 7 7 6 5 4 3
15 13 10 12 13 12 16 18 16 16 14 13 13 11 11 10 10 9 9 8 6 5 6 5 4 5 5 4 4 4 4 3 3 3 3 2 1 2 3 2 2 2 2 1 1 1 0 1 3 3 3 3 4 5 6 6 5 5 5 6 5 5 5 4 5 7 8 8 9 9 9 9 9 6 5 7 8 8 6 7 8 7 6 6 4
10 11 10 11 14 14 15 17 15 14 13 12 13 13 12 12 13 12 10 8 7 6 5 5 4 4 4 4 4 4 4 4 3 3 3 3 2 2 1 1 1 1 1 2 1 2 3 2 2 1 1 2 3 4 6 6 6 5 4 5 5 4 4 3 5 7 8 9 9 10 9 8 7 5 1 6 7 6 6 7 7 5 5 5 4
7 10 13 14 16 15 14 15 15 14 14 13 14 14 13 13 14 13 12 9 8 8 7 6 5 4 4 4 4 4 5 4 4 4 3 3 2 2 2 1 1 1 1 1 1 2 3 3 3 1 1 2 3 3 4 5 5 4 3 4 4 3 4 3 4 7 6 7 7 8 10 8 6 5 4 5 7 7 6 6 4 3 4 4 4
9 11 15 17 16 13 12 13 14 14 15 15 16 15 14 14 14 14 13 11 10 10 9 8 6 6 6 5 5 6 6 5 5 5 3 3 3 3 3 2 2 2 2 2 1 1 2 2 2 1 1 2 1 2 4 2 4 4 3 3 2 2 1 3 5 6 4 4 4 5 7 5 5 6 6 5 4 6 6 5 4 4 4 4 2
13 12 14 16 15 13 12 13 14 14 16 17 18 16 14 13 13 13 12 11 10 10 9 8 7 7 7 6 7 7 6 6 5 5 4 3 4 3 3 3 3 2 3 4 2 1 0 1 1 1 2 1 1 1 3 2 2 4 3 2 1 1 3 5 5 4 2 2 1 1 2 2 5 5 4 5 3 5 6 6 4 5 5 5 5
12 12 13 11 12 14 13 14 15 14 16 18 17 16 14 13 13 12 11 11 10 9 9 8 8 7 7 8 8 8 7 6 6 5 4 4 3 3 3 4 2 1 3 3 2 1 2 1 1 2 2 2 1 0 1 2 2 1 1 0 1 0 4 5 4 3 3 2 1 1 1 2 2 3 6 6 5 5 6 7 6 7 6 7 9
12 13 13 10 13 16 13 13 14 16 19 18 16 15 13 12 12 11 10 10 10 10 9 9 9 9 9 9 9 9 8 7 6 5 4 4 4 3 4 5 3 3 3 3 3 4 4 3 3 3 3 3 2 2 3 3 3 4 4 3 2 2 1 4 5 4 5 4 3 1 3 3 2 6 8 7 6 6 7 7 8 11 11 9 12
14 14 13 10 13 17 14 12 14 16 18 16 14 15 13 11 11 10 9 9 10 10 10 10 10 10 10 9 9 9 8 7 6 5 5 5 5 4 4 5 4 4 4 4 4 5 5 5 4 3 4 5 4 4 4 4 5 6 6 5 4 3 2 1 4 5 4 6 7 4 5 4 3 3 4 6 7 8 9 9 11 13 11 10 11
18 17 17 15 16 19 16 14 15 15 15 15 15 16 15 13 12 9 8 9 10 10 10 10 11 11 11 10 9 9 9 8 8 7 7 6 6 5 5 6 6 5 4 4 5 5 4 4 4 4 5 6 6 6 6 6 7 8 7 6 6 4 3 2 2 4 4 7 9 7 7 5 3 4 7 8 9 10 10 11 13 13 12 13 14
20 20 22 22 20 21 19 18 18 15 15 16 15 16 16 15 13 9 8 9 11 10 10 11 12 12 12 11 10 8 8 9 9 9 8 7 7 6 7 9 8 7 7 6 6 5 4 3 4 4 5 6 7 7 8 8 9 9 8 8 8 7 5 4 3 4 5 7 9 9 7 5 4 7 10 10 11 12 13 13 14 15 14 15 16
19 21 24 25 24 23 22 22 20 17 17 18 18 18 17 16 14 10 10 11 11 11 11 12 12 12 12 11 10 10 9 9 10 10 9 9 9 9 9 9 10 9 8 8 8 8 7 7 8 7 7 9 9 9 9 9 10 9 8 8 8 8 7 7 6 5 5 8 10 9 7 7 6 8 11 12 11 12 13 13 14 14 14 15 15
Wind_Direction
158 177 182 170 156 153 155 150 152 152 155 157 158 161 163 166 168 169 167 161 157 156 154 150 144 138 135 131 125 126 127 128 131 132 135 142 151 158 158 156 152 150 149 145 140 143 146 143 138 129 118 112 108 104 98 104 107 102 98 89 84 83 80 78 78 78 77 75 74 73 71 70 70 67 60 59 62 60 62 64 54 47 65 92 109
159 181 181 169 158 155 155 152 154 154 156 156 158 161 164 168 169 172 168 162 160 161 160 156 150 142 140 136 130 132 134 134 137 138 139 144 155 163 166 163 160 159 151 143 142 145 150 150 139 126 118 116 112 106 101 100 101 98 93 86 82 83 81 79 79 80 77 74 70 70 69 67 67 65 60 58 60 57 58 65 64 64 76 90 98
154 170 177 167 158 156 156 154 155 153 154 154 156 158 163 167 170 173 168 166 167 166 165 162 154 147 146 138 134 138 139 141 142 143 147 151 155 164 173 173 169 169 161 149 151 150 152 156 139 128 124 120 117 111 106 101 99 95 90 87 84 81 82 81 82 83 78 71 62 60 59 62 63 61 59 56 56 53 52 57 60 69 84 92 95
151 163 173 164 158 158 157 156 155 153 152 151 152 153 159 165 170 173 170 172 172 170 168 165 158 151 148 138 140 145 145 146 146 146 153 162 158 157 166 170 175 181 180 172 169 160 154 163 149 135 132 128 125 116 110 106 102 98 92 88 83 80 80 81 84 81 73 67 60 52 38 46 59 59 59 57 55 52 48 49 56 72 91 100 103
150 166 170 162 160 161 159 157 155 154 153 151 149 149 153 161 169 172 175 176 173 172 169 165 160 153 147 143 148 151 150 149 148 147 148 158 156 149 151 155 165 184 191 187 183 174 163 166 158 145 139 137 132 124 118 110 105 101 97 90 84 81 80 81 84 78 71 66 65 63 25 28 52 60 61 60 58 53 49 45 51 71 95 108 112
151 166 167 163 163 163 161 158 157 157 156 152 149 148 151 157 165 171 175 175 173 173 170 165 161 153 146 149 152 150 150 147 147 148 143 150 153 147 149 151 156 179 193 188 183 180 172 167 160 151 147 145 140 135 127 117 110 103 99 93 86 82 79 81 82 75 71 64 59 68 41 15 38 60 65 62 61 59 53 47 48 64 91 113 119
158 165 165 166 166 164 163 161 160 160 158 155 152 149 149 154 160 167 171 173 173 173 170 165 159 153 151 151 150 148 147 145 147 149 143 145 152 150 152 155 161 179 182 175 173 174 174 171 164 156 154 152 148 145 137 127 117 109 103 95 88 83 82 82 81 78 74 67 57 69 77 9 22 54 63 63 64 63 60 52 50 57 76 106 124
161 164 163 168 168 167 165 163 162 162 161 158 154 151 149 151 155 161 167 170 170 170 168 164 160 156 154 152 149 145 141 140 140 141 142 144 150 150 152 153 155 161 151 150 159 169 173 174 170 162 161 159 156 153 147 138 128 121 110 97 92 87 85 84 79 77 73 71 72 73 74 6 5 47 60 64 67 66 66 57 53 55 63 87 117
154 158 163 173 172 168 167 166 165 164 162 160 156 151 148 149 153 157 162 165 166 167 167 165 161 157 153 151 147 142 138 137 133 132 135 141 147 146 150 150 142 139 137 140 147 166 176 178 175 169 169 166 165 163 157 150 142 134 118 107 98 92 88 84 74 66 63 64 80 83 94 63 359 38 59 65 68 67 66 60 56 58 60 68 92
151 154 165 179 176 171 170 167 167 166 163 161 156 151 149 150 152 156 159 161 164 165 164 161 157 156 153 149 145 140 138 138 133 129 129 136 147 151 153 148 141 141 151 158 154 166 182 188 182 177 178 172 172 170 164 158 152 146 131 121 106 102 94 87 75 64 58 59 87 112 130 131 351 35 61 66 68 68 65 62 61 61 62 61 71
152 152 164 181 180 175 172 170 169 168 165 162 158 154 152 152 154 157 158 161 164 162 159 157 159 159 154 149 145 142 140 138 134 132 132 138 148 154 151 147 146 150 166 175 178 181 187 199 192 185 183 179 178 174 170 169 164 159 151 134 121 113 102 94 80 67 59 68 76 85 104 123 359 54 66 68 70 72 72 71 68 63 63 63 64
152 154 170 181 180 179 176 173 171 169 166 164 161 158 155 154 156 157 160 163 163 160 159 158 160 157 151 151 149 145 142 136 134 138 139 141 150 154 149 150 152 158 178 198 208 201 195 198 196 191 188 184 181 177 177 180 175 167 167 148 138 125 106 98 84 76 60 68 76 83 87 11 35 69 74 74 75 77 77 75 73 69 65 64 65
157 162 177 177 177 181 179 177 174 170 167 166 164 161 159 157 158 160 163 164 161 159 159 160 158 152 148 151 150 144 141 139 137 138 141 143 153 158 153 153 159 170 189 212 220 214 203 192 189 193 188 186 185 184 184 185 182 174 175 164 152 133 111 92 86 89 81 75 88 95 135 263 39 66 78 80 79 78 77 75 76 75 71 68 67
162 169 175 174 179 180 180 179 174 171 170 170 169 164 161 161 162 164 164 162 161 159 158 161 156 148 147 148 145 142 142 142 138 136 139 144 152 158 160 163 171 184 197 211 216 214 211 196 192 192 184 188 191 191 189 188 190 184 179 172 162 142 121 90 78 88 101 90 87 83 256 30 50 68 77 82 80 76 76 76 77 78 77 74 70
167 172 171 174 180 178 178 179 174 172 172 173 170 166 165 164 164 164 164 163 163 161 159 161 154 147 147 145 145 144 146 145 139 138 142 146 146 152 161 169 176 182 193 205 210 213 209 203 204 197 185 191 198 196 191 190 195 196 187 179 168 154 135 102 91 106 101 85 88 114 250 19 47 70 76 82 84 79 79 79 80 79 80 79 75
169 170 169 173 179 176 175 177 175 172 173 176 175 172 169 165 164 165 166 166 168 164 159 159 155 151 148 147 149 147 149 147 141 141 144 144 143 147 154 159 163 162 173 189 197 207 209 209 214 207 197 193 198 198 191 191 197 202 194 182 174 158 141 117 113 122 98 100 99 175 271 334 44 78 81 83 89 88 85 85 84 83 82 83 82
165 168 169 169 177 175 173 175 168 170 178 180 177 173 168 165 166 172 173 171 171 163 157 158 157 154 150 149 152 149 149 148 145 145 145 145 148 148 145 145 145 145 150 161 170 185 201 209 213 211 208 192 189 195 189 187 192 198 193 181 175 157 147 124 112 119 136 121 96 108 282 341 27 66 91 86 92 97 94 91 88 88 85 84 85
161 167 169 166 174 174 173 173 165 172 183 179 176 170 166 170 172 178 182 174 169 161 157 160 158 156 154 154 153 149 147 146 145 144 143 145 148 146 143 145 143 140 139 143 145 158 188 198 205 207 207 187 177 189 188 185 185 188 188 180 172 152 148 124 110 141 149 106 105 184 262 342 349 48 101 91 93 98 102 102 94 95 92 89 88
160 170 170 163 169 174 175 175 172 179 182 177 177 173 173 178 178 182 183 166 163 162 159 160 162 163 159 155 152 147 145 142 139 138 140 141 141 145 149 150 147 144 138 137 141 143 158 162 181 189 190 182 171 182 188 189 188 184 185 181 174 154 142 116 113 155 121 102 162 226 279 327 316 247 105 100 94 92 104 114 104 102 100 97 93
163 176 177 169 168 174 178 176 178 181 180 179 180 178 182 186 187 192 178 160 162 163 164 166 168 170 162 155 149 144 144 139 136 140 145 145 147 155 155 158 156 146 139 136 143 143 144 142 143 153 160 169 170 180 184 189 192 187 186 183 181 166 144 114 125 164 131 139 216 244 283 310 300 281 144 125 98 90 103 118 117 111 106 104 100
173 179 182 179 172 177 181 177 179 181 182 184 185 186 193 200 198 194 169 158 163 164 171 172 172 171 161 153 147 141 143 143 143 148 151 155 162 168 163 165 163 151 147 136 133 130 133 133 124 122 122 126 151 176 181 187 191 189 189 187 187 173 154 141 151 164 141 178 226 248 288 308 304 290 158 112 108 104 113 125 125 123 118 111 109
183 182 181 180 173 184 187 178 175 179 183 183 185 193 198 197 187 175 161 160 165 170 174 174 173 169 159 151 146 142 145 148 150 156 161 167 168 169 166 165 167 163 165 137 106 107 113 112 108 108 104 107 127 147 181 205 188 184 188 187 181 175 198 186 162 164 154 198 232 246 290 305 308 303 2 51 92 56 194 135 121 129 135 125 122
182 182 174 169 174 191 190 180 177 178 181 181 181 186 183 174 164 159 161 164 168 175 174 175 176 170 159 148 143 145 152 157 156 164 171 172 169 171 169 170 176 171 165 143 118 103 105 101 98 107 115 125 127 130 185 264 251 191 181 178 175 191 215 198 169 175 173 218 243 246 284 298 306 304 348 8 24 8 247 178 116 128 139 142 135
178 181 171 172 183 192 183 177 181 176 173 177 175 167 165 162 161 163 165 166 171 176 175 179 179 173 162 147 146 152 160 167 164 170 176 172 172 176 176 178 182 174 171 168 164 156 139 127 122 134 141 137 136 155 189 217 248 231 184 178 187 204 208 194 182 187 181 222 249 257 275 288 294 295 300 289 315 260 227 208 163 129 134 153 154
178 175 175 185 186 183 175 170 171 166 165 171 167 162 164 163 164 169 168 169 175 177 179 183 179 174 160 143 155 167 169 179 177 180 182 181 182 181 180 179 184 185 185 190 200 210 224 203 173 174 171 163 193 208 199 196 209 213 205 197 195 199 196 193 191 191 198 224 254 265 271 283 287 289 287 272 295 282 234 203 202 166 144 160 168
176 172 183 189 181 171 166 167 166 162 163 166 166 163 164 162 165 171 168 172 178 178 181 182 176 176 155 136 145 162 168 183 185 189 188 189 194 192 189 186 191 194 194 205 215 216 214 208 209 211 194 197 208 210 203 195 198 200 206 209 199 194 192 196 194 195 212 227 248 258 265 282 288 289 287 278 289 287 256 223 202 189 176 171 175
177 181 191 184 174 168 162 168 167 163 164 165 168 167 166 161 164 171 169 174 180 178 179 172 165 177 162 138 146 162 166 178 187 195 197 205 208 202 201 199 207 205 197 207 221 221 211 198 201 211 207 204 207 209 211 201 195 197 203 207 201 196 192 198 197 201 223 230 237 246 257 275 285 292 292 291 301 298 271 251 213 192 190 185 180
181 182 188 177 173 172 165 171 172 168 168 167 170 172 173 164 164 172 171 175 176 175 176 162 156 174 168 142 155 172 172 181 195 204 211 220 216 211 213 211 218 219 210 211 220 219 211 209 206 208 209 204 207 210 212 209 198 194 199 201 198 197 195 201 198 198 221 229 231 232 240 265 280 295 296 299 310 308 279 272 251 208 195 196 188
186 181 182 172 169 169 163 170 175 172 169 169 171 175 178 167 164 171 171 174 173 175 181 165 159 170 165 147 158 175 182 189 202 211 219 229 221 215 215 213 214 216 216 215 218 219 209 211 212 208 205 198 203 206 201 209 206 195 195 195 194 196 196 202 195 195 217 225 226 221 226 262 280 295 300 299 306 307 281 280 281 244 197 196 192
189 183 180 171 164 162 164 172 177 172 169 173 174 179 181 167 162 166 167 170 171 178 180 158 156 155 154 160 158 167 183 191 207 216 217 224 226 222 215 214 214 211 217 217 217 223 213 209 214 209 205 200 202 206 202 199 196 192 195 191 191 192 192 200 195 197 219 225 225 222 223 250 271 283 295 296 298 306 284 280 299 273 198 202 197
191 185 178 172 162 160 169 179 179 175 171 176 181 183 175 155 154 158 158 165 174 183 172 147 147 130 137 180 169 164 175 187 208 212 204 212 224 231 223 219 223 219 222 222 221 228 222 216 221 212 206 208 212 213 211 205 192 183 188 184 185 189 188 196 195 194 215 227 227 222 220 231 251 258 270 286 290 307 296 294 354 343 349 220 199
193 188 178 171 165 161 170 175 175 174 171 176 183 176 160 152 154 151 152 168 179 183 169 174 182 128 154 192 183 173 178 189 203 203 205 214 221 235 238 230 233 232 227 228 234 243 244 234 231 230 221 221 224 222 220 215 198 177 182 179 177 186 187 194 196 191 205 226 228 219 218 222 230 232 227 235 256 322 11 57 51 32 27 66 107
196 188 176 177 174 166 170 171 168 167 165 171 179 168 156 160 155 146 161 177 174 172 183 209 232 216 193 194 182 180 181 184 192 206 216 222 227 237 245 239 235 240 234 235 241 250 259 251 232 246 244 241 237 237 236 228 219 191 182 180 183 187 181 184 196 197 197 223 234 219 218 220 221 221 207 186 148 108 88 81 73 64 61 73 72
198 191 181 185 183 175 177 171 162 162 165 166 167 167 162 160 155 149 165 175 170 178 201 230 242 257 230 194 192 192 175 171 180 199 214 221 232 239 245 238 222 227 235 238 242 248 256 249 235 231 232 248 249 244 243 241 243 225 190 186 203 194 184 178 183 188 192 213 232 213 211 216 214 216 209 188 153 123 106 97 89 80 86 104 99
196 197 193 192 189 188 182 166 154 153 165 171 161 163 163 163 169 164 166 177 182 197 229 259 258 271 262 222 214 202 163 164 179 188 196 202 220 231 235 236 224 221 236 240 241 252 257 251 249 226 214 245 259 249 242 240 237 214 191 198 212 194 192 193 185 179 188 205 226 213 209 212 205 209 210 195 156 127 114 106 99 91 92 97 95
196 197 196 190 185 190 179 155 144 137 151 173 166 160 165 171 176 166 161 177 174 201 261 266 254 285 296 226 189 187 163 160 178 190 195 194 209 224 224 233 235 230 237 242 238 244 250 245 245 228 210 227 241 244 242 237 232 212 196 205 220 193 190 220 208 201 200 210 229 221 210 206 204 208 204 197 173 135 122 123 120 113 105 95 94
200 197 193 189 181 182 167 136 132 139 157 169 164 159 164 172 177 156 140 154 156 160 246 294 335 338 348 55 93 110 138 152 162 188 200 192 203 223 222 229 235 237 243 240 237 234 235 237 236 229 219 216 220 243 252 242 234 222 210 216 230 214 195 219 214 206 205 217 242 240 224 208 202 202 197 199 198 187 175 159 149 137 121 103 96
202 200 193 189 177 163 147 131 133 153 167 164 163 163 161 168 170 151 135 133 119 114 105 102 108 111 110 30 32 53 82 143 156 177 196 186 198 225 227 222 220 237 250 237 241 241 242 244 238 237 230 218 220 251 251 234 230 222 224 233 233 229 230 234 228 219 211 221 242 252 249 217 195 193 198 207 215 211 209 204 194 160 125 101 97
206 203 192 181 174 155 144 145 148 158 164 162 168 167 163 165 155 139 132 121 101 101 106 118 145 147 124 72 37 30 36 84 183 190 194 177 228 248 236 220 213 227 229 227 249 248 240 241 242 245 246 231 223 238 231 219 226 210 220 237 227 229 243 245 248 243 236 241 241 246 253 248 236 197 190 200 220 221 213 213 223 204 160 132 116
208 195 184 178 179 171 162 158 157 165 166 163 168 164 162 157 137 128 120 108 104 117 114 107 113 102 98 96 87 83 76 76 55 51 75 97 330 315 76 51 33 196 200 206 231 237 227 234 246 243 245 247 233 233 233 229 228 212 225 237 222 226 238 246 263 261 258 258 256 264 263 262 269 241 192 189 210 223 212 206 217 216 207 208 222
199 184 180 181 180 183 177 166 163 169 163 162 166 157 156 147 132 128 116 114 131 132 121 116 110 106 110 101 95 103 103 97 79 76 96 107 85 69 70 51 51 84 87 56 306 344 56 211 247 245 238 247 237 226 230 239 242 230 239 245 229 230 237 247 276 273 266 262 262 268 263 266 279 269 210 182 193 211 202 203 217 216 219 221 221
185 178 161 156 170 180 175 166 163 161 153 160 162 147 147 144 137 135 127 129 140 129 122 125 122 125 134 118 104 103 102 106 101 82 81 80 74 61 52 8 36 88 62 28 350 5 14 6 337 315 256 258 256 237 232 240 247 238 246 257 242 234 237 237 260 264 259 258 261 262 260 266 282 298 268 143 152 168 171 188 212 210 211 223 225
161 174 162 154 165 171 163 158 156 154 153 159 156 147 147 146 141 138 133 133 143 144 135 124 119 123 132 127 122 108 84 80 74 58 61 77 80 61 30 351 342 338 25 18 338 357 352 356 359 351 289 267 272 279 260 239 239 256 263 262 264 236 207 184 235 254 257 263 270 270 268 266 267 296 350 71 104 111 123 150 172 175 177 200 221
179 183 176 170 167 162 157 153 155 161 160 157 155 153 149 145 143 140 140 147 154 153 138 123 120 117 116 112 108 102 88 85 80 71 94 128 118 101 86 67 57 58 64 47 41 30 345 346 346 341 323 269 243 320 312 274 242 266 264 246 272 272 201 144 212 232 241 261 273 273 271 279 292 308 342 12 76 95 82 104 140 156 154 150 165
199 186 174 170 159 157 160 154 159 165 159 154 153 151 145 141 143 142 145 153 149 142 135 130 127 119 116 111 103 100 98 97 91 81 87 100 106 113 111 95 85 102 87 54 39 139 43 4 329 335 349 304 178 298 314 332 261 255 239 207 221 309 81 123 191 213 219 239 198 255 278 304 304 306 342 0 53 91 66 66 104 143 156 143 137
191 167 159 159 138 145 167 167 163 158 153 154 150 146 146 144 146 145 143 147 144 142 144 140 134 127 121 114 107 106 107 103 98 93 86 87 101 103 86 77 62 102 101 76 53 80 95 81 27 34 29 348 350 49 358 14 5 293 230 292 206 59 101 137 180 171 148 157 152 222 42 38 354 46 45 33 53 73 64 56 65 89 101 110 119
170 153 153 147 119 132 171 183 167 154 150 154 148 143 149 147 146 146 143 146 148 147 147 143 138 134 130 124 117 111 109 108 106 104 99 99 104 93 81 76 56 34 49 67 75 59 60 63 51 57 51 30 30 40 35 14 23 59 53 34 17 352 100 168 181 155 142 134 135 169 112 103 104 83 65 56 55 50 64 65 55 60 60 76 102
159 152 148 138 129 147 178 186 168 159 155 155 151 145 149 151 147 144 146 152 154 150 147 145 141 135 129 122 116 108 106 106 101 98 98 100 101 94 96 97 87 72 53 52 65 60 61 68 60 57 49 46 53 52 44 31 40 57 52 40 27 7 17 146 175 167 155 137 131 122 108 118 148 111 71 60 60 53 63 71 69 70 65 70 95
159 155 140 128 143 164 180 180 170 168 164 162 157 152 151 149 143 142 154 161 157 153 149 146 142 136 130 124 122 121 119 113 102 99 98 96 94 92 109 113 97 92 95 81 65 58 60 63 51 50 50 47 51 54 55 51 50 54 52 44 37 37 36 29 163 167 158 140 135 128 118 115 119 102 79 67 67 65 64 67 71 75 77 79 87
158 158 146 139 151 163 169 171 169 168 168 166 163 160 153 140 135 147 170 167 158 154 151 147 143 138 135 130 125 121 120 119 114 110 106 101 99 92 101 109 100 96 98 86 68 57 60 61 51 50 55 51 46 46 51 52 48 47 49 40 31 41 40 27 74 118 131 132 129 129 127 117 106 99 88 74 65 64 63 66 70 71 73 78 82
154 153 151 153 159 160 163 164 163 169 173 169 166 163 152 137 137 157 178 170 162 162 156 148 143 139 136 130 127 125 124 124 120 117 116 115 114 106 102 104 102 99 94 85 78 71 73 74 66 61 62 61 55 49 53 58 50 43 46 43 32 36 35 27 41 71 110 122 119 118 118 116 106 90 83 76 69 68 65 65 70 72 72 74 77
Height
1491 1489 1491 1493 1495 1496 1498 1500 1502 1503 1504 1506 1507 1509 1510 1512 1513 1514 1516 1517 1517 1519 1519 1520 1520 1521 1521 1522 1523 1523 1524 1524 1525 1526 1527 1528 1529 1530 1530 1530 1531 1532 1532 1533 1533 1534 1535 1536 1536 1537 1537 1538 1538 1538 1538 1538 1538 1538 1537 1537 1537 1537 1537 1537 1537 1537 1537 1537 1537 1537 1536 1536 1536 1535 1535 1534 1533 1532 1531 1531 1531 1530 1529 1529 1530
1490 1490 1491 1493 1495 1497 1499 1500 1502 1503 1505 1506 1508 1510 1511 1512 1514 1515 1516 1517 1518 1519 1520 1520 1521 1521 1522 1523 1524 1524 1525 1526 1526 1527 1528 1529 1530 1531 1531 1531 1532 1532 1533 1533 1534 1535 1536 1537 1537 1538 1538 1539 1539 1539 1539 1539 1539 1539 1539 1539 1538 1538 1539 1539 1539 1539 1539 1538 1538 1538 1538 1538 1537 1537 1536 1535 1534 1533 1533 1532 1532 1531 1530 1530 1531
1490 1491 1492 1494 1495 1497 1499 1500 1502 1504 1505 1507 1508 1510 1511 1513 1514 1516 1517 1518 1518 1520 1521 1521 1522 1522 1523 1524 1524 1525 1526 1527 1527 1528 1529 1530 1531 1532 1532 1532 1533 1533 1534 1534 1535 1535 1536 1537 1538 1538 1539 1540 1540 1540 1540 1540 1540 1540 1540 1540 1540 1540 1540 1540 1540 1540 1540 1540 1539 1539 1539 1539 1539 1538 1538 1537 1536 1535 1534 1533 1532 1532 1531 1531 1532
1491 1491 1492 1495 1496 1498 1499 1501 1503 1504 1506 1507 1509 1510 1512 1513 1514 1516 1517 1518 1519 1520 1521 1522 1522 1523 1524 1524 1525 1526 1527 1527 1528 1529 1530 1531 1532 1533 1533 1534 1534 1534 1534 1535 1535 1536 1537 1538 1539 1539 1540 1540 1541 1541 1541 1541 1541 1542 1541 1541 1541 1541 1542 1542 1542 1542 1541 1541 1541 1541 1541 1541 1540 1539 1539 1538 1537 1536 1535 1535 1534 1533 1532 1533 1534
1492 1492 1493 1495 1496 1499 1500 1502 1503 1505 1506 1508 1509 1511 1512 1513 1515 1516 1517 1518 1519 1520 1521 1522 1523 1524 1524 1525 1526 1526 1527 1528 1529 1530 1531 1532 1533 1534 1534 1535 1535 1535 1535 1536 1536 1537 1538 1538 1539 1540 1540 1541 1542 1542 1542 1542 1543 1543 1543 1543 1543 1543 1543 1543 1543 1543 1543 1543 1543 1544 1544 1543 1542 1541 1540 1540 1539 1538 1537 1536 1535 1534 1534 1534 1535
1492 1492 1494 1495 1497 1499 1501 1503 1504 1505 1507 1508 1510 1511 1512 1513 1515 1516 1517 1519 1520 1521 1522 1523 1524 1525 1525 1526 1526 1527 1528 1529 1530 1530 1531 1533 1534 1534 1535 1535 1536 1536 1535 1536 1537 1537 1538 1539 1540 1540 1541 1541 1542 1543 1543 1543 1544 1544 1544 1544 1544 1544 1544 1544 1544 1544 1544 1545 1546 1547 1548 1545 1544 1543 1541 1541 1540 1539 1538 1538 1537 1536 1536 1536 1536
1492 1493 1495 1496 1498 1500 1502 1504 1505 1506 1507 1509 1510 1511 1513 1514 1515 1516 1518 1519 1520 1522 1523 1524 1525 1526 1526 1526 1527 1527 1528 1529 1530 1531 1532 1533 1535 1535 1536 1536 1536 1536 1536 1536 1537 1538 1538 1539 1540 1541 1541 1542 1543 1543 1544 1544 1544 1545 1545 1545 1545 1545 1545 1545 1545 1546 1546 1547 1549 1551 1551 1547 1546 1544 1543 1542 1541 1541 1540 1540 1539 1538 1538 1538 1538
1493 1494 1496 1497 1499 1501 1503 1504 1505 1507 1508 1509 1510 1512 1513 1514 1516 1517 1518 1520 1521 1522 1523 1525 1525 1526 1526 1527 1527 1528 1529 1530 1530 1531 1532 1534 1535 1536 1536 1537 1537 1537 1536 1536 1537 1538 1539 1540 1540 1541 1541 1542 1543 1544 1544 1545 1545 1545 1546 1546 1546 1546 1546 1546 1546 1547 1547 1549 1552 1553 1552 1549 1547 1546 1544 1543 1543 1542 1541 1541 1541 1540 1539 1539 1539
1494 1496 1497 1498 1499 1502 1503 1505 1506 1507 1509 1510 1511 1513 1514 1515 1517 1518 1519 1520 1522 1523 1524 1525 1526 1526 1526 1527 1528 1528 1529 1530 1530 1532 1533 1534 1536 1536 1537 1537 1537 1537 1537 1537 1538 1539 1539 1540 1541 1541 1542 1543 1544 1544 1544 1545 1545 1546 1546 1547 1547 1547 1547 1547 1548 1549 1549 1552 1554 1553 1553 1551 1548 1547 1546 1544 1544 1544 1543 1543 1542 1542 1541 1541 1540
1495 1497 1498 1499 1500 1502 1504 1505 1507 1508 1510 1511 1512 1514 1515 1517 1518 1519 1520 1521 1523 1523 1524 1525 1526 1526 1526 1527 1528 1529 1530 1530 1531 1532 1534 1535 1536 1536 1537 1537 1538 1538 1538 1538 1538 1539 1540 1540 1541 1541 1542 1543 1544 1544 1545 1545 1546 1546 1547 1548 1548 1548 1548 1548 1548 1549 1552 1554 1554 1553 1552 1551 1549 1548 1547 1546 1545 1544 1544 1544 1544 1544 1543 1542 1541
1497 1498 1499 1499 1501 1502 1504 1506 1507 1509 1511 1512 1513 1515 1516 1517 1518 1520 1521 1522 1523 1524 1525 1525 1526 1526 1527 1528 1528 1530 1530 1531 1532 1533 1534 1535 1536 1537 1537 1538 1538 1538 1538 1539 1539 1540 1540 1541 1541 1542 1542 1543 1544 1545 1545 1545 1546 1546 1547 1548 1548 1549 1548 1549 1548 1551 1555 1555 1554 1554 1553 1551 1550 1549 1547 1546 1546 1546 1546 1546 1545 1545 1544 1544 1543
1497 1499 1499 1499 1501 1503 1505 1506 1508 1510 1512 1513 1514 1515 1517 1518 1519 1520 1522 1523 1523 1524 1525 1526 1526 1527 1528 1529 1529 1530 1531 1532 1532 1534 1535 1536 1536 1537 1537 1538 1539 1539 1539 1539 1540 1540 1540 1541 1542 1542 1543 1544 1545 1545 1545 1545 1546 1547 1547 1548 1549 1549 1549 1550 1549 1553 1557 1555 1555 1556 1553 1551 1550 1550 1549 1547 1547 1547 1547 1547 1546 1546 1546 1545 1545
1498 1498 1499 1500 1502 1503 1505 1507 1509 1511 1513 1514 1515 1516 1517 1519 1520 1521 1522 1523 1524 1525 1526 1526 1526 1527 1529 1530 1530 1531 1532 1533 1533 1534 1535 1536 1537 1537 1538 1539 1539 1539 1540 1540 1540 1541 1541 1541 1542 1542 1543 1544 1545 1545 1545 1546 1546 1547 1548 1548 1549 1549 1550 1551 1551 1554 1557 1556 1556 1556 1553 1551 1551 1550 1549 1549 1548 1548 1548 1548 1547 1547 1547 1547 1546
1498 1499 1499 1501 1503 1504 1506 1508 1510 1513 1514 1515 1516 1517 1518 1520 1520 1521 1522 1523 1524 1525 1525 1527 1527 1528 1529 1530 1531 1532 1533 1534 1535 1535 1536 1537 1537 1538 1538 1539 1539 1540 1540 1540 1540 1541 1541 1542 1541 1542 1543 1544 1545 1545 1546 1546 1546 1547 1548 1548 1549 1550 1550 1551 1552 1555 1556 1556 1556 1556 1553 1551 1551 1551 1550 1549 1549 1549 1549 1549 1549 1548 1548 1548 1548
1499 1499 1500 1501 1503 1506 1507 1510 1512 1514 1515 1516 1517 1518 1519 1520 1521 1522 1523 1523 1524 1524 1525 1526 1528 1528 1529 1531 1532 1533 1534 1535 1536 1536 1537 1538 1538 1539 1539 1540 1540 1540 1540 1540 1540 1540 1541 1542 1541 1542 1543 1544 1545 1545 1546 1546 1547 1547 1548 1549 1549 1550 1551 1551 1553 1557 1556 1556 1557 1556 1553 1552 1552 1551 1551 1550 1550 1550 1550 1550 1550 1549 1549 1549 1549
1499 1500 1501 1503 1504 1507 1508 1511 1513 1515 1516 1517 1518 1519 1520 1521 1523 1523 1523 1524 1524 1524 1524 1526 1528 1529 1529 1530 1531 1532 1534 1536 1537 1537 1538 1538 1538 1539 1539 1540 1541 1541 1541 1540 1540 1541 1541 1542 1542 1542 1543 1545 1545 1545 1546 1546 1547 1547 1548 1549 1550 1550 1551 1551 1553 1557 1557 1557 1557 1556 1553 1552 1552 1552 1551 1551 1551 1551 1551 1551 1551 1550 1550 1550 1550
1500 1501 1502 1504 1505 1507 1509 1511 1514 1516 1517 1518 1518 1519 1521 1522 1523 1523 1522 1524 1525 1524 1525 1527 1528 1529 1529 1530 1531 1532 1534 1536 1538 1538 1539 1539 1539 1539 1540 1540 1541 1541 1541 1541 1540 1541 1542 1542 1542 1542 1543 1545 1545 1545 1546 1547 1547 1548 1548 1549 1550 1551 1552 1552 1553 1556 1557 1557 1558 1556 1553 1553 1553 1552 1552 1552 1552 1552 1551 1551 1551 1551 1551 1551 1551
1502 1502 1503 1504 1506 1508 1509 1511 1514 1516 1517 1517 1518 1519 1520 1520 1522 1523 1523 1525 1525 1525 1526 1527 1529 1529 1530 1530 1531 1533 1534 1537 1538 1539 1539 1539 1539 1539 1540 1541 1541 1541 1541 1541 1540 1541 1541 1542 1542 1542 1543 1544 1545 1546 1546 1547 1547 1548 1549 1550 1551 1551 1552 1552 1554 1556 1556 1557 1558 1556 1554 1553 1553 1553 1553 1552 1552 1552 1552 1552 1552 1552 1552 1552 1552
1502 1503 1503 1505 1506 1508 1509 1511 1513 1515 1515 1517 1518 1519 1520 1520 1522 1524 1525 1526 1526 1526 1526 1527 1529 1530 1530 1531 1532 1533 1535 1537 1538 1539 1539 1539 1539 1540 1540 1540 1541 1541 1541 1541 1540 1541 1541 1542 1542 1543 1543 1544 1545 1546 1547 1547 1548 1548 1549 1550 1551 1551 1552 1553 1555 1556 1556 1557 1557 1555 1554 1554 1553 1553 1553 1553 1553 1553 1553 1553 1553 1553 1553 1553 1553
1502 1502 1503 1505 1506 1508 1509 1511 1512 1513 1514 1516 1518 1519 1520 1521 1523 1524 1525 1526 1527 1527 1527 1527 1529 1530 1531 1532 1533 1535 1536 1537 1538 1539 1539 1539 1539 1539 1540 1541 1541 1541 1541 1541 1541 1541 1541 1542 1542 1542 1543 1544 1545 1546 1547 1547 1548 1548 1549 1550 1551 1552 1552 1553 1555 1556 1556 1557 1555 1555 1555 1554 1554 1553 1553 1553 1553 1553 1553 1553 1554 1554 1554 1554 1553
1501 1502 1503 1504 1506 1508 1509 1510 1511 1513 1514 1516 1517 1518 1520 1521 1522 1524 1525 1526 1526 1526 1527 1527 1528 1530 1531 1532 1534 1536 1537 1538 1539 1539 1539 1539 1539 1540 1540 1541 1541 1540 1541 1541 1541 1541 1541 1541 1541 1542 1543 1543 1544 1545 1546 1547 1548 1548 1549 1550 1550 1551 1552 1553 1555 1556 1556 1556 1554 1554 1555 1554 1554 1553 1553 1554 1553 1554 1554 1554 1554 1554 1554 1554 1554
1500 1501 1503 1504 1506 1508 1509 1510 1511 1513 1514 1515 1517 1518 1519 1520 1521 1523 1524 1525 1525 1525 1526 1527 1528 1529 1530 1533 1535 1537 1538 1539 1539 1539 1539 1539 1540 1540 1541 1541 1541 1540 1541 1541 1541 1541 1541 1541 1541 1541 1542 1543 1543 1544 1545 1546 1547 1548 1549 1550 1550 1551 1552 1552 1554 1556 1556 1554 1553 1554 1554 1554 1554 1553 1554 1554 1554 1554 1554 1554 1554 1554 1555 1555 1555
1500 1501 1503 1505 1506 1507 1508 1510 1511 1512 1513 1514 1516 1517 1518 1519 1519 1521 1522 1524 1523 1524 1525 1526 1526 1527 1529 1533 1536 1537 1538 1539 1539 1538 1539 1539 1540 1540 1540 1541 1541 1541 1541 1541 1541 1540 1541 1541 1541 1541 1541 1542 1543 1544 1545 1546 1546 1547 1548 1549 1550 1551 1551 1551 1552 1555 1555 1553 1552 1553 1554 1554 1554 1554 1554 1554 1554 1554 1554 1554 1554 1554 1555 1555 1555
1500 1500 1502 1503 1504 1506 1508 1509 1511 1513 1514 1514 1514 1516 1517 1517 1518 1519 1521 1522 1522 1523 1524 1525 1525 1527 1530 1534 1536 1537 1538 1538 1538 1538 1538 1539 1539 1540 1540 1540 1541 1541 1541 1541 1540 1540 1540 1541 1541 1541 1541 1541 1543 1545 1547 1547 1546 1546 1548 1548 1550 1551 1550 1551 1552 1554 1554 1552 1552 1553 1553 1554 1554 1554 1554 1554 1554 1554 1554 1554 1554 1554 1555 1555 1555
1498 1500 1501 1502 1504 1506 1507 1509 1510 1512 1514 1514 1514 1515 1516 1517 1518 1519 1520 1520 1521 1523 1524 1525 1525 1527 1531 1534 1535 1536 1537 1537 1538 1538 1538 1539 1539 1539 1540 1540 1541 1541 1541 1541 1541 1540 1540 1541 1541 1541 1541 1542 1544 1546 1547 1547 1547 1547 1547 1547 1548 1549 1549 1550 1551 1553 1552 1551 1552 1552 1553 1553 1553 1554 1554 1554 1553 1553 1554 1554 1554 1554 1554 1555 1555
1499 1500 1501 1502 1504 1505 1507 1508 1510 1512 1513 1514 1514 1515 1516 1516 1518 1519 1520 1521 1522 1523 1525 1525 1526 1528 1530 1533 1534 1534 1536 1537 1537 1538 1538 1539 1539 1539 1540 1541 1541 1542 1542 1541 1541 1540 1540 1541 1541 1541 1541 1543 1545 1546 1546 1546 1546 1547 1547 1547 1547 1548 1548 1549 1551 1551 1550 1550 1552 1552 1552 1553 1553 1553 1553 1553 1553 1553 1553 1553 1554 1554 1554 1554 1555
1500 1501 1500 1502 1503 1504 1506 1508 1509 1510 1512 1513 1514 1515 1516 1517 1517 1518 1519 1521 1522 1524 1526 1527 1528 1528 1529 1533 1535 1534 1535 1537 1538 1538 1538 1538 1538 1540 1541 1541 1541 1542 1542 1542 1541 1541 1540 1540 1541 1542 1542 1544 1544 1545 1545 1545 1545 1546 1547 1546 1546 1547 1548 1549 1550 1550 1549 1550 1551 1552 1552 1552 1553 1553 1553 1553 1553 1553 1553 1553 1553 1553 1554 1554 1555
1499 1499 1499 1501 1502 1503 1505 1507 1508 1509 1510 1512 1513 1515 1516 1516 1517 1518 1519 1521 1522 1524 1525 1527 1528 1528 1529 1533 1535 1535 1536 1537 1538 1538 1538 1538 1538 1540 1541 1540 1540 1540 1542 1542 1542 1541 1541 1541 1542 1543 1543 1544 1545 1545 1545 1545 1545 1545 1546 1546 1546 1546 1547 1548 1548 1549 1548 1549 1551 1552 1552 1552 1553 1553 1553 1554 1553 1553 1553 1553 1553 1553 1553 1554 1554
1498 1498 1498 1499 1501 1502 1505 1506 1507 1508 1509 1511 1513 1515 1515 1517 1518 1518 1519 1521 1521 1522 1523 1525 1527 1528 1530 1534 1536 1537 1537 1537 1538 1538 1538 1538 1539 1540 1540 1541 1540 1541 1542 1542 1542 1541 1541 1542 1542 1543 1543 1543 1544 1545 1545 1546 1545 1545 1545 1545 1545 1545 1546 1547 1547 1548 1547 1549 1551 1551 1552 1553 1553 1553 1553 1554 1554 1553 1553 1553 1553 1553 1553 1554 1554
1496 1497 1498 1499 1501 1503 1505 1505 1506 1507 1510 1511 1513 1515 1516 1517 1518 1518 1518 1519 1520 1521 1522 1524 1527 1529 1532 1535 1537 1539 1538 1538 1537 1537 1537 1538 1539 1539 1540 1540 1540 1541 1541 1542 1542 1540 1540 1541 1541 1541 1542 1542 1544 1544 1544 1544 1544 1545 1545 1545 1545 1545 1546 1546 1547 1548 1547 1548 1549 1550 1551 1552 1553 1553 1553 1554 1554 1553 1553 1553 1553 1553 1553 1553 1554
1496 1496 1497 1498 1499 1502 1503 1504 1505 1507 1509 1511 1513 1516 1517 1517 1517 1517 1517 1518 1519 1520 1522 1525 1527 1530 1533 1535 1537 1539 1539 1537 1536 1536 1537 1537 1538 1538 1538 1539 1539 1539 1540 1540 1540 1539 1539 1540 1540 1542 1543 1544 1544 1544 1544 1544 1543 1544 1545 1545 1545 1545 1545 1546 1546 1548 1547 1546 1548 1549 1550 1551 1552 1552 1553 1553 1553 1553 1553 1553 1553 1553 1553 1554 1554
1495 1496 1497 1497 1498 1501 1501 1501 1504 1507 1509 1511 1515 1519 1519 1518 1517 1517 1518 1519 1520 1521 1524 1526 1528 1532 1534 1535 1537 1539 1539 1537 1536 1535 1536 1537 1537 1537 1537 1538 1538 1539 1540 1540 1540 1541 1541 1541 1542 1543 1544 1544 1545 1545 1545 1545 1542 1543 1545 1544 1545 1545 1546 1546 1546 1548 1547 1545 1547 1548 1549 1550 1551 1551 1552 1552 1553 1553 1553 1553 1554 1554 1554 1554 1554
1494 1495 1496 1496 1496 1499 1499 1500 1504 1509 1511 1513 1516 1519 1519 1518 1517 1518 1519 1520 1521 1522 1524 1526 1528 1531 1534 1535 1536 1536 1537 1538 1537 1535 1535 1535 1535 1535 1536 1537 1539 1540 1540 1540 1542 1543 1542 1542 1543 1543 1543 1544 1545 1546 1546 1547 1545 1543 1545 1545 1545 1545 1545 1545 1545 1547 1547 1546 1546 1547 1548 1549 1550 1550 1551 1552 1553 1553 1554 1554 1554 1554 1555 1555 1555
1493 1494 1495 1495 1497 1500 1499 1501 1505 1509 1513 1514 1517 1519 1519 1519 1519 1520 1521 1521 1522 1523 1524 1526 1528 1530 1532 1533 1534 1534 1535 1537 1537 1536 1535 1535 1534 1534 1534 1536 1538 1540 1539 1540 1541 1541 1541 1541 1542 1541 1542 1544 1546 1546 1547 1549 1547 1544 1544 1544 1544 1544 1544 1544 1544 1546 1547 1546 1545 1546 1547 1547 1548 1549 1550 1552 1553 1554 1554 1555 1555 1555 1555 1555 1556
1493 1493 1494 1496 1499 1502 1501 1503 1507 1511 1514 1515 1518 1519 1519 1520 1520 1521 1521 1522 1522 1523 1525 1527 1528 1529 1530 1532 1533 1533 1533 1535 1536 1536 1536 1536 1535 1534 1534 1535 1537 1539 1538 1539 1540 1540 1540 1540 1540 1540 1541 1544 1546 1547 1549 1550 1548 1546 1544 1544 1544 1544 1544 1544 1544 1545 1546 1545 1544 1545 1546 1547 1547 1549 1550 1552 1553 1554 1555 1555 1555 1556 1556 1556 1556
1492 1493 1495 1497 1500 1503 1503 1505 1509 1513 1516 1516 1517 1519 1519 1519 1520 1521 1521 1522 1523 1524 1525 1526 1527 1528 1529 1531 1531 1532 1532 1533 1534 1535 1535 1535 1535 1535 1535 1535 1537 1538 1538 1539 1539 1539 1539 1539 1539 1539 1541 1544 1546 1547 1549 1550 1549 1546 1545 1544 1544 1544 1545 1545 1544 1544 1545 1545 1544 1544 1546 1547 1547 1549 1550 1551 1553 1554 1555 1556 1555 1555 1556 1556 1556
1492 1494 1496 1498 1501 1504 1505 1506 1511 1515 1516 1516 1517 1518 1519 1520 1521 1521 1522 1523 1523 1524 1525 1526 1527 1528 1528 1529 1530 1531 1532 1533 1534 1534 1534 1535 1535 1534 1535 1536 1536 1537 1537 1538 1538 1538 1538 1538 1538 1539 1541 1544 1545 1547 1547 1548 1547 1546 1545 1545 1544 1544 1544 1544 1544 1544 1544 1544 1544 1544 1545 1547 1547 1548 1549 1550 1552 1553 1554 1555 1555 1555 1555 1556 1556
1491 1493 1495 1500 1504 1506 1507 1510 1513 1514 1514 1516 1517 1518 1519 1520 1521 1521 1522 1523 1523 1524 1525 1526 1527 1528 1529 1529 1529 1531 1532 1532 1533 1534 1534 1534 1534 1534 1535 1535 1536 1536 1537 1537 1537 1537 1538 1538 1537 1538 1541 1543 1544 1545 1546 1546 1547 1547 1546 1545 1544 1544 1544 1544 1543 1543 1543 1543 1544 1544 1544 1545 1546 1547 1548 1549 1550 1552 1552 1553 1554 1555 1556 1556 1557
1490 1492 1495 1501 1506 1507 1508 1511 1512 1512 1513 1515 1517 1517 1519 1520 1521 1522 1521 1521 1522 1524 1526 1527 1529 1529 1529 1529 1530 1531 1531 1532 1533 1533 1533 1533 1533 1533 1534 1535 1535 1535 1536 1536 1536 1537 1537 1538 1537 1538 1540 1541 1543 1544 1544 1545 1546 1547 1546 1545 1544 1544 1544 1543 1543 1542 1542 1542 1543 1543 1544 1545 1546 1547 1550 1551 1550 1550 1551 1552 1554 1555 1556 1556 1557
1491 1493 1498 1502 1505 1506 1507 1509 1510 1510 1512 1515 1516 1517 1519 1520 1520 1521 1520 1521 1522 1525 1528 1529 1529 1529 1530 1530 1530 1531 1532 1532 1532 1533 1533 1533 1533 1533 1534 1534 1535 1535 1535 1535 1536 1536 1537 1537 1537 1538 1539 1540 1541 1542 1543 1544 1545 1545 1545 1545 1544 1544 1544 1543 1543 1543 1542 1542 1542 1543 1543 1544 1545 1546 1549 1551 1550 1549 1551 1552 1553 1554 1555 1556 1557
1492 1495 1500 1503 1505 1504 1504 1506 1508 1510 1512 1514 1516 1518 1519 1520 1521 1521 1522 1523 1525 1527 1529 1530 1530 1530 1530 1530 1531 1531 1532 1532 1533 1533 1533 1533 1533 1533 1534 1534 1534 1535 1535 1535 1536 1536 1536 1536 1537 1537 1538 1539 1540 1541 1542 1543 1543 1544 1544 1545 1544 1544 1544 1544 1544 1544 1543 1543 1542 1542 1543 1543 1545 1546 1548 1550 1550 1550 1552 1553 1554 1554 1555 1556 1556
1495 1498 1502 1504 1505 1503 1504 1506 1508 1510 1513 1515 1517 1519 1520 1521 1522 1523 1524 1526 1528 1529 1530 1530 1530 1530 1531 1531 1531 1532 1532 1533 1533 1533 1532 1533 1533 1533 1534 1534 1535 1535 1536 1536 1536 1536 1536 1536 1537 1537 1538 1538 1539 1540 1541 1541 1542 1542 1543 1544 1544 1544 1544 1544 1545 1544 1543 1542 1542 1542 1543 1544 1545 1547 1549 1550 1551 1552 1553 1553 1554 1555 1555 1556 1556
1498 1501 1504 1505 1505 1505 1506 1507 1509 1511 1514 1515 1517 1519 1520 1522 1523 1524 1526 1527 1528 1530 1530 1530 1530 1531 1531 1531 1532 1532 1533 1533 1533 1533 1533 1533 1533 1533 1534 1535 1535 1535 1536 1536 1536 1536 1536 1537 1537 1537 1538 1538 1539 1539 1540 1540 1541 1541 1542 1543 1543 1543 1543 1544 1545 1544 1542 1542 1542 1542 1544 1544 1545 1547 1549 1551 1552 1554 1554 1554 1554 1555 1556 1556 1556
1498 1500 1502 1503 1504 1505 1507 1508 1510 1512 1514 1516 1518 1519 1521 1522 1523 1524 1526 1527 1528 1529 1530 1531 1531 1532 1532 1532 1532 1533 1534 1534 1535 1535 1534 1533 1533 1533 1534 1534 1535 1535 1535 1536 1536 1536 1537 1537 1537 1537 1538 1538 1538 1539 1539 1540 1540 1540 1541 1541 1542 1543 1543 1544 1544 1543 1542 1543 1543 1544 1545 1545 1546 1548 1550 1552 1553 1554 1555 1555 1555 1555 1555 1555 1556
1496 1499 1501 1503 1504 1506 1508 1509 1510 1512 1514 1516 1518 1520 1522 1523 1524 1525 1526 1528 1529 1530 1531 1532 1532 1533 1533 1533 1533 1534 1534 1535 1536 1535 1534 1534 1533 1534 1534 1534 1534 1535 1535 1536 1536 1536 1537 1537 1537 1537 1538 1538 1538 1538 1538 1539 1540 1540 1540 1541 1541 1542 1543 1543 1543 1543 1543 1544 1544 1545 1546 1547 1547 1549 1550 1552 1553 1553 1554 1555 1556 1556 1555 1556 1557
1493 1497 1501 1502 1505 1508 1509 1510 1511 1513 1515 1517 1519 1521 1523 1524 1525 1526 1528 1529 1531 1532 1533 1533 1533 1533 1533 1533 1534 1534 1535 1536 1536 1536 1536 1535 1535 1535 1535 1535 1535 1535 1535 1535 1535 1535 1536 1536 1536 1537 1537 1537 1537 1538 1538 1538 1539 1539 1540 1540 1541 1542 1543 1543 1543 1543 1544 1545 1546 1546 1547 1548 1548 1549 1550 1551 1552 1552 1553 1554 1555 1556 1556 1557 1557
1492 1497 1500 1502 1507 1511 1510 1511 1513 1515 1517 1519 1520 1522 1524 1525 1527 1528 1530 1531 1532 1533 1534 1534 1534 1533 1533 1534 1534 1535 1535 1536 1536 1537 1536 1536 1536 1536 1536 1537 1537 1537 1536 1536 1535 1536 1536 1536 1536 1536 1537 1537 1537 1537 1538 1538 1538 1539 1539 1540 1541 1542 1542 1543 1544 1545 1546 1547 1547 1548 1548 1549 1549 1551 1551 1552 1552 1552 1553 1554 1554 1555 1556 1556 1557
1493 1496 1500 1504 1510 1511 1511 1513 1516 1517 1518 1520 1521 1523 1525 1527 1529 1530 1532 1533 1533 1534 1534 1534 1534 1534 1534 1534 1535 1535 1536 1536 1537 1537 1537 1537 1537 1538 1538 1538 1539 1539 1538 1537 1536 1536 1536 1536 1536 1536 1536 1537 1537 1537 1538 1538 1539 1539 1540 1540 1541 1541 1542 1543 1543 1545 1546 1547 1548 1549 1550 1550 1551 1551 1552 1552 1552 1552 1553 1553 1554 1555 1556 1556 1556
1492 1495 1499 1504 1510 1511 1512 1516 1518 1519 1520 1521 1522 1524 1525 1527 1529 1532 1534 1534 1534 1534 1535 1535 1534 1534 1535 1535 1536 1536 1536 1537 1538 1538 1539 1539 1539 1539 1539 1539 1540 1540 1540 1539 1538 1537 1537 1537 1536 1536 1537 1537 1537 1537 1538 1539 1539 1540 1541 1541 1542 1542 1543 1544 1544 1545 1546 1547 1548 1550 1550 1551 1551 1552 1552 1552 1552 1553 1553 1554 1554 1555 1555 1555 1556
1491 1493 1497 1501 1505 1508 1511 1515 1517 1519 1521 1522 1523 1525 1525 1526 1529 1533 1535 1535 1535 1536 1536 1535 1535 1535 1535 1536 1536 1537 1537 1538 1538 1539 1539 1540 1540 1540 1540 1540 1540 1540 1540 1540 1539 1538 1538 1537 1537 1537 1537 1537 1538 1538 1539 1539 1540 1541 1542 1543 1543 1544 1544 1545 1545 1546 1547 1547 1549 1550 1551 1552 1552 1552 1553 1553 1553 1554 1554 1554 1555 1555 1555 1555 1556
1493 1494 1497 1499 1502 1505 1509 1512 1516 1519 1521 1522 1523 1524 1525 1525 1528 1533 1536 1536 1537 1537 1537 1536 1536 1536 1536 1537 1537 1538 1539 1539 1539 1539 1540 1540 1540 1541 1541 1541 1541 1541 1541 1541 1540 1540 1539 1539 1539 1538 1538 1539 1539 1539 1540 1541 1542 1543 1543 1544 1545 1545 1545 1546 1546 1547 1547 1548 1549 1551 1552 1552 1553 1553 1553 1554 1555 1556 1556 1556 1555 1556 1556 1556 1556